Погода в Брилёвке

Украина / Херсонская область     46°25′31″N   33°08′59″E
темп.,
°C
ветер,
м/с
пор.,
м/с
влажн.,
%
обл.,
%
осадки,
мм/ч
давл.,
гПа
погр.,
м
10 мая, пн
пн1000:00+8зсз3365100 0.0 102633
03:00+8ссз226389 0.0 102619
06:00+6с33715 0.0 102738
09:00+13с34500 0.0 1027684
12:00+16с56355 0.0 10252312
15:00+18с56315 0.0 10242482
18:00+17с573646 0.0 10222323
21:00+11ссв46495 0.0 102291
11 мая, вт
вт1100:00+9ссз4656100 0.0 102199
03:00+8сз4106345 0.0 1019182
06:00+10сз6125793 0.0 1018515
09:00+12ссз6960100 0.0 1017631
12:00+16ссз565768 0.0 10161043
15:00+18с6859100 0.0 10151347
18:00+14всв6781100 0.4 1015375
21:00+12ссв3792100 1.0 1015369
12 мая, ср
ср1200:00+10св369214 0.6 1015139
03:00+7св34891 0.6 101456
06:00+6св33882 0.0 101460
09:00+12ссв22685 0.0 1013740
12:00+15св015097 0.1 10131711
15:00+16с334741 0.1 10121459
18:00+17юв124326 0.0 10121463
21:00+11ююв3467100 0.0 101258
13 мая, чт
чт1300:00+11вюв2290100 0.0 101313
03:00+10всв339570 0.0 101234
06:00+11в359494 0.0 1012105
09:00+16вюв6862100 0.0 1011513
12:00+21вюв7953100 0.0 10101218
15:00+22юв895164 0.0 10091062
18:00+21вюв67576 0.0 1008561
21:00+14вюв49813 0.0 1008156
14 мая, пт
пт1400:00+13юз3783100 0.0 1009109
03:00+11ююз34895 0.0 100947
06:00+11ю229113 0.0 101037
09:00+18ю3465100 0.0 1010410
12:00+23ююз4649100 0.0 1011941
15:00+24ююз6745100 0.0 10111295
18:00+21юз5654100 0.0 1011617
21:00+15юз33830 0.0 101235